Montpelier, VT

4:40 PM EST on December 06, 2019 (GMT -0500)
Knapp State

Weather History for KMPV - July, 2019

Change the Weather History Date:

Tuesday, July 16, 2019

  Actual Average Record
Temperature  
Mean Temperature 65 °F 67 °F  
Max Temperature 78 °F 79 °F 92 °F (1969)
Min Temperature 51 °F 56 °F 42 °F (1966)
Degree Days  
Heating Degree Days 0 1  
Month to date heating degree days 6 22  
Since 1 June heating degree days 150 143  
Since 1 July heating degree days 6 22  
Cooling Degree Days 0 3  
Month to date cooling degree days 52 52  
Year to date cooling degree days 72 115  
Since 1 June cooling degree days 71 105  
Growing Degree Days 14 (Base 50)    
Moisture  
Dew Point 58 °F    
Average Humidity 77    
Maximum Humidity 100    
Minimum Humidity 54    
Precipitation  
Precipitation T in 0.13 in 1.41 in (1976)
Month to date precipitation 1.17 1.96  
Year to date precipitation 26.10 18.67  
Sea Level Pressure  
Sea Level Pressure 30.06 in    
Wind  
Wind Speed 5 mph (South)    
Max Wind Speed 16 mph    
Max Gust Speed 19 mph    
Visibility 8 miles    
Events Fog    
T = Trace of Precipitation, MM = Missing Value Source: NWS Daily Summary

Daily Weather History Graph

Daily Weather History Graph

Search for Another Location

Airport or City:

Astronomy

Jul. 16, 2019 Rise Set
Actual Time 5:21 AM EDT 8:30 PM EDT
Civil Twilight 4:46 AM EDT 9:05 PM EDT
Nautical Twilight 4:01 AM EDT 9:50 PM EDT
Astronomical Twilight 3:06 AM EDT 10:45 PM EDT
Moon 8:35 PM EDT (7/16) 4:56 AM EDT (7/16)
Length of Visible Light 16h 19m
Length of Day
15h 09m
Full, 100% of the Moon is Illuminated
Jul 16
Full
Jul 16
Full
Jul 24
Last Quarter
Jul 31
New
Aug 7
First Quarter

Hourly Weather History & Observations

Time (EDT) Temp. Dew Point Humidity Pressure Visibility Wind Dir Wind Speed Gust Speed Precip Events Conditions
12:51 AM 55.9 °F 54.0 °F 93% 30.11 in 10.0 mi Calm Calm - N/A   Clear
1:51 AM 55.0 °F 53.1 °F 93% 30.12 in 10.0 mi Calm Calm - N/A   Clear
2:51 AM 54.0 °F 53.1 °F 97% 30.11 in 10.0 mi Calm Calm - N/A   Clear
3:51 AM 54.0 °F 52.0 °F 93% 30.10 in 10.0 mi Calm Calm - N/A   Clear
4:51 AM 54.0 °F 52.0 °F 93% 30.11 in 10.0 mi Calm Calm - N/A   Clear
5:10 AM 52.0 °F 51.1 °F 97% 30.11 in 1.8 mi Calm Calm - N/A   Clear
5:16 AM 52.0 °F 51.1 °F 97% 30.12 in 4.0 mi Calm Calm - N/A   Partly Cloudy
5:41 AM 53.1 °F 52.0 °F 96% 30.12 in 10.0 mi Calm Calm - N/A   Mostly Cloudy
5:51 AM 53.1 °F 52.0 °F 96% 30.12 in 8.0 mi Calm Calm - N/A   Mostly Cloudy
5:56 AM 53.1 °F 53.1 °F 100% 30.12 in 1.0 mi Calm Calm - N/A   Mist
6:03 AM 53.1 °F 53.1 °F 100% 30.12 in 0.2 mi Calm Calm - N/A Fog Fog
6:48 AM 55.4 °F 55.4 °F 100% 30.13 in 1.2 mi Calm Calm - N/A   Mostly Cloudy
6:51 AM 55.0 °F 55.0 °F 100% 30.12 in 3.0 mi Calm Calm - N/A   Mostly Cloudy
7:03 AM 55.0 °F 55.0 °F 100% 30.13 in 10.0 mi Calm Calm - N/A   Scattered Clouds
7:51 AM 57.0 °F 55.9 °F 96% 30.11 in 10.0 mi Calm Calm - N/A   Partly Cloudy
8:51 AM 64.9 °F 60.1 °F 84% 30.09 in 10.0 mi North 3.5 mph - N/A   Clear
9:51 AM 72.0 °F 59.0 °F 64% 30.08 in 10.0 mi South 8.1 mph - N/A   Clear
10:51 AM 75.0 °F 57.9 °F 55% 30.06 in 10.0 mi South 13.8 mph - N/A   Clear
11:51 AM 77.0 °F 59.0 °F 54% 30.06 in 10.0 mi Variable 6.9 mph - N/A   Partly Cloudy
12:51 PM 75.0 °F 59.0 °F 57% 30.06 in 10.0 mi South 5.8 mph - N/A   Overcast
1:51 PM 72.0 °F 57.9 °F 61% 30.06 in 10.0 mi South 5.8 mph - 0.00 in   Overcast
2:51 PM 72.0 °F 59.0 °F 64% 30.05 in 10.0 mi SSE 10.4 mph - N/A   Overcast
3:51 PM 73.9 °F 61.0 °F 64% 30.02 in 10.0 mi SSE 12.7 mph - N/A   Clear
4:51 PM 75.9 °F 64.0 °F 67% 29.99 in 10.0 mi South 12.7 mph - N/A   Clear
5:51 PM 75.0 °F 64.9 °F 71% 29.98 in 10.0 mi South 6.9 mph - N/A   Clear
6:51 PM 75.9 °F 66.0 °F 71% 29.97 in 10.0 mi South 8.1 mph - N/A   Clear
7:51 PM 73.9 °F 66.0 °F 76% 29.96 in 10.0 mi South 8.1 mph - N/A   Clear
8:51 PM 73.0 °F 66.0 °F 79% 29.96 in 10.0 mi South 3.5 mph - N/A   Mostly Cloudy
9:51 PM 73.0 °F 66.0 °F 79% 29.96 in 10.0 mi Calm Calm - N/A   Clear
10:51 PM 75.9 °F 64.9 °F 69% 29.96 in 10.0 mi SSW 5.8 mph - N/A   Clear
11:51 PM 71.1 °F 66.0 °F 84% 29.95 in 10.0 mi Calm Calm - N/A   Clear